Weather History for KSMN - September, 2013

Change the Weather History Date:

Thursday, September 26, 2013

  Actual Average Record
Temperature  
Mean Temperature 45 °F -  
Max Temperature 51 °F 66 °F 87 °F (2014)
Min Temperature 39 °F 34 °F 23 °F (1972)
Degree Days  
Heating Degree Days 20    
Moisture  
Dew Point 33 °F    
Average Humidity 68    
Maximum Humidity 93    
Minimum Humidity 41    
Precipitation  
Precipitation 0.00 in - - ()
Sea Level Pressure  
Sea Level Pressure 29.85 in    
Wind  
Wind Speed 4 mph (North)    
Max Wind Speed 17 mph    
Max Gust Speed 25 mph    
Visibility 10 miles    
Events      
Averages and records for this station are not official NWS values.
T = Trace of Precipitation, MM = Missing Value Source: NWS Daily Summary

Daily Weather History Graph

Daily Weather History Graph

Search for Another Location

Airport or City:

Trip Planner

Search our weather history database for the weather conditions in past years. The results will help you decide how hot, cold, wet, or windy it might be!

Date:

Astronomy

Sep. 26, 2013 Rise Set
Actual Time 7:27 AM MDT 7:24 PM MDT
Civil Twilight 6:58 AM MDT 7:54 PM MDT
Nautical Twilight 6:24 AM MDT 8:28 PM MDT
Astronomical Twilight 5:49 AM MDT 9:03 PM MDT
Moon No Moon Rise 2:36 PM MDT (9/26)
Length of Visible Light 12h 55m
Length of Day
11h 56m
Waning Gibbous, 54% of the Moon is Illuminated
Sep 26
Waning Gibbous
Sep 26
Last Quarter
Oct 4
New
Oct 11
First Quarter
Oct 18
Full

Hourly Weather History & Observations

Time (MDT) Temp. Windchill Dew Point Humidity Pressure Visibility Wind Dir Wind Speed Gust Speed Precip Events Conditions
12:15 AM 39.2 °F - 37.4 °F 93% 29.72 in 10.0 mi Calm Calm - N/A   Overcast
12:35 AM 39.2 °F 37.0 °F 37.4 °F 93% 29.72 in 10.0 mi SW 3.5 mph - N/A   Overcast
12:55 AM 39.2 °F 37.0 °F 37.4 °F 93% 29.72 in 10.0 mi SSW 3.5 mph - N/A   Overcast
1:15 AM 39.2 °F - 37.4 °F 93% 29.72 in 10.0 mi Calm Calm - N/A   Overcast
1:35 AM 39.2 °F - 37.4 °F 93% 29.72 in 10.0 mi Calm Calm - N/A   Overcast
2:15 AM 39.2 °F 37.0 °F 37.4 °F 93% 29.73 in 10.0 mi South 3.5 mph - N/A   Overcast
2:35 AM 41.0 °F 39.0 °F 37.4 °F 87% 29.73 in 10.0 mi South 3.5 mph - N/A   Overcast
2:55 AM 41.0 °F - 37.4 °F 87% 29.73 in 10.0 mi Calm Calm - N/A   Overcast
3:15 AM 41.0 °F - 37.4 °F 87% 29.74 in 10.0 mi Calm Calm - N/A   Overcast
3:35 AM 41.0 °F 38.0 °F 37.4 °F 87% 29.74 in 10.0 mi South 4.6 mph - N/A   Overcast
3:55 AM 41.0 °F - 37.4 °F 87% 29.74 in 10.0 mi Calm Calm - N/A   Overcast
4:15 AM 41.0 °F 38.0 °F 37.4 °F 87% 29.75 in 10.0 mi South 4.6 mph - N/A   Mostly Cloudy
4:35 AM 41.0 °F 39.0 °F 37.4 °F 87% 29.75 in 10.0 mi SSW 3.5 mph - N/A   Overcast
4:55 AM 41.0 °F 39.0 °F 37.4 °F 87% 29.76 in 10.0 mi West 3.5 mph - N/A   Overcast
5:15 AM 41.0 °F - 37.4 °F 87% 29.76 in 10.0 mi Calm Calm - N/A   Mostly Cloudy
5:35 AM 41.0 °F - 37.4 °F 87% 29.77 in 10.0 mi Calm Calm - N/A   Overcast
5:55 AM 41.0 °F - 37.4 °F 87% 29.77 in 10.0 mi Calm Calm - N/A   Overcast
6:15 AM 41.0 °F - 37.4 °F 87% 29.78 in 10.0 mi Calm Calm - N/A   Overcast
6:35 AM 41.0 °F - 37.4 °F 87% 29.79 in 10.0 mi Calm Calm - N/A   Overcast
6:55 AM 41.0 °F 39.0 °F 37.4 °F 87% 29.79 in 10.0 mi South 3.5 mph - N/A   Overcast
7:15 AM 41.0 °F - 37.4 °F 87% 29.79 in 10.0 mi Calm Calm - N/A   Overcast
7:35 AM 41.0 °F - 37.4 °F 87% 29.80 in 10.0 mi Calm Calm - N/A   Mostly Cloudy
7:55 AM 41.0 °F 37.1 °F 35.6 °F 81% 29.81 in 10.0 mi ESE 5.8 mph - N/A   Overcast
8:15 AM 42.8 °F - 37.4 °F 81% 29.82 in 10.0 mi Calm Calm - N/A   Overcast
8:35 AM 42.8 °F - 37.4 °F 81% 29.82 in 10.0 mi Calm Calm - N/A   Overcast
8:55 AM 42.8 °F - 37.4 °F 81% 29.83 in 10.0 mi Calm Calm - N/A   Overcast
9:15 AM 42.8 °F - 35.6 °F 76% 29.83 in 10.0 mi Calm Calm - N/A   Mostly Cloudy
9:35 AM 44.6 °F - 35.6 °F 71% 29.84 in 10.0 mi Calm Calm - N/A   Mostly Cloudy
9:55 AM 44.6 °F - 37.4 °F 76% 29.84 in 10.0 mi Calm Calm - N/A   Overcast
10:15 AM 46.4 °F 41.1 °F 33.8 °F 62% 29.84 in 10.0 mi NNE 11.5 mph - N/A   Mostly Cloudy
10:35 AM 46.4 °F 41.1 °F 33.8 °F 62% 29.84 in 10.0 mi North 11.5 mph - N/A   Mostly Cloudy
10:55 AM 46.4 °F 41.1 °F 33.8 °F 62% 29.85 in 10.0 mi North 11.5 mph - N/A   Overcast
11:15 AM 48.2 °F - 32.0 °F 54% 29.85 in 10.0 mi North 11.5 mph - N/A   Overcast
11:35 AM 48.2 °F - 32.0 °F 54% 29.85 in 10.0 mi North 11.5 mph - N/A   Mostly Cloudy
11:55 AM 48.2 °F - 30.2 °F 50% 29.85 in 10.0 mi North 12.7 mph 19.6 mph N/A   Overcast
12:15 PM 50.0 °F - 33.8 °F 54% 29.85 in 10.0 mi North 13.8 mph 19.6 mph N/A   Overcast
12:35 PM 50.0 °F - 28.4 °F 43% 29.85 in 10.0 mi North 17.3 mph 21.9 mph N/A   Mostly Cloudy
12:55 PM 51.8 °F - 28.4 °F 41% 29.85 in 10.0 mi North 12.7 mph 25.3 mph N/A   Overcast
1:15 PM 48.2 °F - 28.4 °F 46% 29.86 in 10.0 mi North 13.8 mph 19.6 mph N/A   Overcast
1:35 PM 50.0 °F - 28.4 °F 43% 29.86 in 10.0 mi North 16.1 mph 20.7 mph N/A   Overcast
1:55 PM 48.2 °F - 30.2 °F 50% 29.86 in 10.0 mi North 15.0 mph - N/A   Overcast
2:15 PM 48.2 °F - 28.4 °F 46% 29.87 in 10.0 mi North 12.7 mph - N/A   Overcast
2:35 PM 48.2 °F - 28.4 °F 46% 29.88 in 10.0 mi North 9.2 mph - N/A   Overcast
2:55 PM 48.2 °F - 28.4 °F 46% 29.88 in 10.0 mi North 13.8 mph 17.3 mph N/A   Overcast
3:35 PM 48.2 °F - 28.4 °F 46% 29.89 in 10.0 mi North 15.0 mph - N/A   Overcast
3:55 PM 48.2 °F - 30.2 °F 50% 29.89 in 10.0 mi North 15.0 mph - N/A   Overcast
4:15 PM 48.2 °F - 28.4 °F 46% 29.90 in 10.0 mi North 12.7 mph 20.7 mph N/A   Overcast
4:35 PM 48.2 °F - 30.2 °F 50% 29.90 in 10.0 mi North 11.5 mph 17.3 mph N/A   Overcast
4:55 PM 48.2 °F - 30.2 °F 50% 29.91 in 10.0 mi NNW 12.7 mph 17.3 mph N/A   Overcast
5:15 PM 46.4 °F 41.9 °F 30.2 °F 53% 29.92 in 10.0 mi North 9.2 mph - N/A   Overcast
5:35 PM 46.4 °F 41.9 °F 30.2 °F 53% 29.92 in 10.0 mi North 9.2 mph - N/A   Overcast
5:55 PM 46.4 °F 41.9 °F 30.2 °F 53% 29.93 in 10.0 mi North 9.2 mph - N/A   Overcast
6:15 PM 46.4 °F 42.4 °F 32.0 °F 57% 29.93 in 10.0 mi North 8.1 mph - N/A   Overcast
6:35 PM 46.4 °F 42.9 °F 30.2 °F 53% 29.94 in 10.0 mi North 6.9 mph - N/A   Overcast
6:55 PM 46.4 °F 44.3 °F 30.2 °F 53% 29.94 in 10.0 mi North 4.6 mph - N/A   Overcast
7:15 PM 44.6 °F 42.2 °F 30.2 °F 57% 29.94 in 10.0 mi NNE 4.6 mph - N/A   Overcast
7:35 PM 44.6 °F 40.7 °F 30.2 °F 57% 29.95 in 10.0 mi NNE 6.9 mph - N/A   Overcast
7:55 PM 44.6 °F 39.7 °F 30.2 °F 57% 29.95 in 10.0 mi NNE 9.2 mph - N/A   Overcast
8:15 PM 44.6 °F 39.7 °F 30.2 °F 57% 29.96 in 10.0 mi NNE 9.2 mph - N/A   Overcast
8:55 PM 42.8 °F 39.3 °F 28.4 °F 57% 29.97 in 10.0 mi NNE 5.8 mph - N/A   Scattered Clouds
9:15 PM 41.0 °F - 28.4 °F 61% 29.98 in 10.0 mi Calm Calm - N/A   Mostly Cloudy
9:35 PM 41.0 °F - 30.2 °F 65% 29.98 in 10.0 mi Calm Calm - N/A   Overcast
9:55 PM 39.2 °F - 30.2 °F 70% 29.98 in 10.0 mi Calm Calm - N/A   Overcast
10:15 PM 39.2 °F 37.0 °F 30.2 °F 70% 29.98 in 10.0 mi SE 3.5 mph - N/A   Scattered Clouds
10:35 PM 39.2 °F 37.0 °F 30.2 °F 70% 29.99 in 10.0 mi East 3.5 mph - N/A   Mostly Cloudy
10:55 PM 42.8 °F - 28.4 °F 57% 29.99 in 10.0 mi Calm Calm - N/A   Mostly Cloudy
11:15 PM 39.2 °F - 30.2 °F 70% 30.00 in 10.0 mi Calm Calm - N/A   Overcast
11:35 PM 39.2 °F - 30.2 °F 70% 30.00 in 10.0 mi Calm Calm - N/A   Overcast
11:55 PM 39.2 °F - 32.0 °F 75% 30.00 in 10.0 mi Calm Calm - N/A   Overcast